• In Czech Republic
  • List of Countries
  • For 7 days
  • Water Temperature
  • Satellite Maps
  • Weather Map
  • Weather Widgets
  • user-avatar
    Login

    Hourly Weather Mayrhofen

    Today, 18 February, Sunday

    Time Temperature Precipitation Wind Pressure Humidity
    00:00 -5°C° 0.7 mm 2 mps 614 mmHg 96%
    01:00 -5°C° 0 mm 2 mps 615 mmHg 96%
    02:00 -6°C° 0.4 mm 2 mps 615 mmHg 96%
    03:00 -6°C° 0.4 mm 2 mps 615 mmHg 96%
    04:00 -7°C° 0.4 mm 2 mps 615 mmHg 95%
    05:00 -7°C° 0.2 mm 2 mps 615 mmHg 95%
    06:00 -8°C° 0.2 mm 2 mps 615 mmHg 94%
    07:00 -8°C° 0 mm 1 mps 615 mmHg 94%
    08:00 -8°C° 0.1 mm 2 mps 615 mmHg 92%
    09:00 -7°C° 0.1 mm 2 mps 616 mmHg 90%
    10:00 -6°C° 0.1 mm 2 mps 616 mmHg 88%
    11:00 -6°C° 0.1 mm 2 mps 616 mmHg 87%
    12:00 -5°C° 0.1 mm 2 mps 616 mmHg 86%
    13:00 -5°C° 0 mm 2 mps 617 mmHg 88%
    14:00 -5°C° 0.1 mm 2 mps 616 mmHg 87%
    15:00 -5°C° 0.1 mm 2 mps 616 mmHg 87%
    16:00 -5°C° 0.1 mm 2 mps 616 mmHg 86%
    17:00 -4°C° 0.1 mm 1 mps 616 mmHg 89%
    18:00 -7°C° 0.1 mm 1 mps 615 mmHg 92%
    19:00 -8°C° 0.1 mm 1 mps 615 mmHg 94%
    20:00 -9°C° 0 mm 1 mps 615 mmHg 94%
    21:00 -10°C° 0 mm 1 mps 614 mmHg 93%
    22:00 -11°C° 0 mm 1 mps 614 mmHg 92%
    23:00 -11°C° 0 mm 1 mps 614 mmHg 90%

    Tomorrow, 19 February, Monday

    Time Temperature Precipitation Wind Pressure Humidity
    00:00 -11°C° 0 mm 1 mps 613 mmHg 88%
    01:00 -11°C° 0 mm 1 mps 613 mmHg 86%
    02:00 -11°C° 0 mm 1 mps 613 mmHg 84%
    03:00 -12°C° 0 mm 1 mps 613 mmHg 82%
    04:00 -12°C° 0 mm 1 mps 612 mmHg 81%
    05:00 -12°C° 0 mm 1 mps 612 mmHg 80%
    06:00 -12°C° 0 mm 1 mps 612 mmHg 79%
    07:00 -12°C° 0 mm 1 mps 612 mmHg 78%
    08:00 -10°C° 0 mm 1 mps 612 mmHg 74%
    09:00 -8°C° 0 mm 1 mps 613 mmHg 71%
    10:00 -5°C° 0 mm 0 mps 614 mmHg 68%
    11:00 -5°C° 0 mm 0 mps 614 mmHg 68%
    12:00 -3°C° 0 mm 1 mps 613 mmHg 69%
    13:00 -2°C° 0 mm 1 mps 613 mmHg 70%
    14:00 -2°C° 0 mm 1 mps 613 mmHg 75%
    15:00 -2°C° 0 mm 1 mps 613 mmHg 79%
    16:00 -2°C° 0 mm 1 mps 612 mmHg 83%
    17:00 -4°C° 0.1 mm 1 mps 612 mmHg 87%
    18:00 -6°C° 0.1 mm 1 mps 612 mmHg 91%
    19:00 -7°C° 0.1 mm 1 mps 611 mmHg 95%
    20:00 -8°C° 0 mm 1 mps 611 mmHg 95%
    21:00 -9°C° 0 mm 1 mps 611 mmHg 94%
    22:00 -9°C° 0 mm 1 mps 610 mmHg 94%
    23:00 -10°C° 0 mm 1 mps 610 mmHg 94%

    Day after tomorrow, 20 February, Tuesday

    Time Temperature Precipitation Wind Pressure Humidity
    00:00 -11°C° 0 mm 1 mps 610 mmHg 93%
    01:00 -11°C° 0 mm 1 mps 609 mmHg 92%
    02:00 -12°C° 0 mm 1 mps 609 mmHg 91%
    03:00 -12°C° 0 mm 1 mps 608 mmHg 89%
    04:00 -12°C° 0 mm 1 mps 608 mmHg 87%
    05:00 -13°C° 0 mm 1 mps 608 mmHg 86%
    06:00 -13°C° 0 mm 1 mps 608 mmHg 84%
    07:00 -15°C° 0 mm 2 mps 607 mmHg 82%
    08:00 -11°C° 0 mm 1 mps 608 mmHg 79%
    09:00 -9°C° 0 mm 1 mps 609 mmHg 75%
    10:00 -7°C° 0 mm 1 mps 609 mmHg 71%
    11:00 -6°C° 0 mm 1 mps 609 mmHg 70%
    12:00 -6°C° 0 mm 2 mps 609 mmHg 69%
    13:00 -6°C° 0 mm 2 mps 609 mmHg 69%
    14:00 -6°C° 0 mm 2 mps 609 mmHg 73%
    15:00 -6°C° 0 mm 2 mps 609 mmHg 77%
    16:00 -7°C° 0 mm 2 mps 608 mmHg 81%
    17:00 -8°C° 0.1 mm 2 mps 608 mmHg 85%
    18:00 -9°C° 0.1 mm 2 mps 608 mmHg 89%
    19:00 -10°C° 0.1 mm 2 mps 608 mmHg 93%
    20:00 -12°C° 0.1 mm 2 mps 608 mmHg 93%
    21:00 -10°C° 0.1 mm 1 mps 608 mmHg 93%
    22:00 -11°C° 0.1 mm 1 mps 608 mmHg 93%
    23:00 -11°C° 0 mm 1 mps 608 mmHg 93%

    21 February, Wednesday

    Time Temperature Precipitation Wind Pressure Humidity
    00:00 -12°C° 0 mm 1 mps 608 mmHg 92%
    01:00 -12°C° 0 mm 1 mps 608 mmHg 92%
    02:00 -12°C° 0 mm 1 mps 608 mmHg 92%
    03:00 -13°C° 0 mm 1 mps 608 mmHg 91%
    04:00 -13°C° 0 mm 1 mps 608 mmHg 91%
    05:00 -13°C° 0.1 mm 1 mps 608 mmHg 91%
    06:00 -13°C° 0.1 mm 1 mps 609 mmHg 91%
    07:00 -13°C° 0.1 mm 1 mps 609 mmHg 91%
    08:00 -11°C° 0.1 mm 1 mps 609 mmHg 89%
    09:00 -10°C° 0.1 mm 2 mps 610 mmHg 87%
    10:00 -8°C° 0.1 mm 2 mps 611 mmHg 86%
    11:00 -7°C° 0.1 mm 2 mps 611 mmHg 85%
    12:00 -7°C° 0.1 mm 2 mps 611 mmHg 85%
    13:00 -6°C° 0.1 mm 2 mps 611 mmHg 84%
    14:00 -6°C° 0.2 mm 2 mps 610 mmHg 85%
    15:00 -6°C° 0.2 mm 2 mps 610 mmHg 86%
    16:00 -7°C° 0.2 mm 3 mps 610 mmHg 88%
    17:00 -7°C° 0.2 mm 2 mps 609 mmHg 90%
    18:00 -8°C° 0.2 mm 2 mps 609 mmHg 92%
    19:00 -10°C° 0.2 mm 2 mps 609 mmHg 94%
    20:00 -10°C° 0.2 mm 2 mps 609 mmHg 94%
    21:00 -10°C° 0.2 mm 2 mps 609 mmHg 94%
    22:00 -12°C° 0.2 mm 2 mps 609 mmHg 94%
    23:00 -12°C° 0.1 mm 2 mps 608 mmHg 93%

    22 February, Thursday

    Time Temperature Precipitation Wind Pressure Humidity
    00:00 -12°C° 0.1 mm 2 mps 608 mmHg 93%
    01:00 -12°C° 0.1 mm 2 mps 608 mmHg 93%
    02:00 -12°C° 0.1 mm 2 mps 608 mmHg 93%
    03:00 -12°C° 0.1 mm 2 mps 607 mmHg 93%
    04:00 -13°C° 0.1 mm 2 mps 607 mmHg 93%
    05:00 -13°C° 0.1 mm 2 mps 607 mmHg 93%
    06:00 -11°C° 0.1 mm 1 mps 606 mmHg 92%
    07:00 -11°C° 0.1 mm 1 mps 606 mmHg 92%
    08:00 -10°C° 0.1 mm 1 mps 607 mmHg 91%
    09:00 -10°C° 0.1 mm 2 mps 607 mmHg 89%
    10:00 -9°C° 0.1 mm 2 mps 608 mmHg 87%
    11:00 -8°C° 0.2 mm 2 mps 608 mmHg 87%
    12:00 -7°C° 0.2 mm 2 mps 608 mmHg 86%
    13:00 -6°C° 0.2 mm 2 mps 608 mmHg 85%
    14:00 -6°C° 0.2 mm 2 mps 608 mmHg 86%
    15:00 -7°C° 0.2 mm 2 mps 608 mmHg 87%
    16:00 -7°C° 0.2 mm 2 mps 608 mmHg 88%
    17:00 -8°C° 0.2 mm 2 mps 607 mmHg 90%
    18:00 -8°C° 0.2 mm 2 mps 607 mmHg 92%
    19:00 -8°C° 0.2 mm 1 mps 607 mmHg 94%
    20:00 -9°C° 0.1 mm 1 mps 607 mmHg 93%
    21:00 -9°C° 0.1 mm 1 mps 607 mmHg 93%
    22:00 -10°C° 0.1 mm 1 mps 607 mmHg 93%
    23:00 -10°C° 0.1 mm 1 mps 607 mmHg 92%

    23 February, Friday

    Time Temperature Precipitation Wind Pressure Humidity
    00:00 -11°C° 0.1 mm 1 mps 607 mmHg 92%
    01:00 -11°C° 0.1 mm 1 mps 607 mmHg 91%
    02:00 -11°C° 0 mm 1 mps 606 mmHg 91%
    03:00 -12°C° 0 mm 1 mps 606 mmHg 91%
    04:00 -12°C° 0 mm 1 mps 605 mmHg 90%
    05:00 -13°C° 0 mm 1 mps 605 mmHg 90%
    06:00 -13°C° 0 mm 1 mps 605 mmHg 90%
    07:00 -13°C° 0 mm 1 mps 605 mmHg 90%
    08:00 -11°C° 0 mm 1 mps 606 mmHg 89%
    09:00 -9°C° 0 mm 1 mps 607 mmHg 87%
    10:00 -8°C° 0 mm 2 mps 608 mmHg 86%
    11:00 -7°C° 0.1 mm 2 mps 607 mmHg 86%
    12:00 -7°C° 0.1 mm 2 mps 607 mmHg 86%
    13:00 -6°C° 0.1 mm 2 mps 607 mmHg 85%
    14:00 -6°C° 0.1 mm 2 mps 607 mmHg 86%
    15:00 -7°C° 0.1 mm 3 mps 607 mmHg 86%
    16:00 -7°C° 0.1 mm 3 mps 607 mmHg 87%
    17:00 -9°C° 0.1 mm 3 mps 607 mmHg 89%
    18:00 -10°C° 0.1 mm 3 mps 607 mmHg 91%
    19:00 -12°C° 0.1 mm 3 mps 607 mmHg 93%
    20:00 -12°C° 0.1 mm 2 mps 607 mmHg 93%
    21:00 -12°C° 0.1 mm 2 mps 607 mmHg 93%
    22:00 -13°C° 0.1 mm 2 mps 607 mmHg 93%
    23:00 -13°C° 0.1 mm 2 mps 607 mmHg 93%
    Show more